RH
61 67 74 66 56 50 35 42 41 48 57 55 49 52 46 48 55 60 67 75 78 75 72 78 83 71 56 44 45 46 44 45 42 39 37 37 37 39 38 37 37 40 39 35 35
44 46 52 55 46 36 33 40 44 43 43 43 47 56 67 72 70 78 92 96 90 89 87 75 71 61 53 48 48 43 40 36 38 34 35 31 33 38 36 40 38 51 58 52 40
40 38 39 40 42 38 44 36 40 39 47 55 67 70 74 86 97 93 96 86 82 86 74 65 55 50 52 50 43 38 35 32 36 34 31 30 36 37 42 54 69 74 73 63 35
52 49 44 42 46 48 47 51 55 51 54 67 70 75 95 98 99 100 99 96 85 63 54 54 54 58 60 55 45 45 41 36 39 36 34 32 32 37 50 61 58 65 61 34 26
85 75 74 74 67 61 58 53 57 61 69 77 88 100 100 100 100 100 98 91 87 84 79 74 79 74 62 53 41 40 45 44 38 39 42 36 38 33 43 43 40 32 21 18 19
100 100 100 98 94 89 95 90 76 76 72 80 98 100 100 100 90 75 65 64 66 69 58 56 58 62 56 48 37 34 37 38 41 39 39 39 35 35 39 32 25 21 19 17 15
77 86 89 84 92 100 100 100 100 100 100 100 100 98 78 80 80 70 66 72 70 49 42 46 47 52 44 52 59 38 35 39 40 43 40 38 34 36 30 24 18 18 15 13 17
60 70 61 65 77 80 79 77 81 84 93 90 88 86 74 71 64 63 65 57 58 50 36 38 42 39 32 31 36 37 35 36 40 40 38 35 31 26 23 17 16 13 16 19 14
62 76 69 64 58 53 67 72 75 70 79 79 84 89 78 78 64 68 62 64 61 47 37 29 31 32 32 32 34 36 37 38 36 31 28 26 22 20 17 14 14 21 20 15 12
68 70 60 55 66 64 63 66 67 68 69 70 82 88 78 89 88 78 61 51 45 46 41 33 33 31 30 41 46 48 40 24 26 19 22 19 20 18 13 16 22 19 16 12 10
66 62 54 64 65 64 67 76 75 83 78 59 61 60 60 77 80 90 85 66 53 48 36 34 30 36 36 42 51 38 21 19 17 16 17 18 18 13 19 22 18 16 12 15 18
57 72 58 62 56 56 63 59 58 78 84 69 60 70 62 62 75 59 58 54 58 47 40 34 37 40 40 43 41 26 15 14 15 14 20 19 14 17 23 21 20 17 21 32 44
35 42 52 74 80 82 69 69 59 54 55 65 68 62 56 56 49 47 48 50 52 42 44 35 38 37 31 26 24 15 12 14 16 18 19 16 17 23 24 27 25 34 44 57 60
27 34 40 43 42 56 74 87 84 72 71 60 65 63 59 57 60 61 63 63 65 54 40 42 34 23 19 17 14 13 13 16 17 19 16 21 25 27 35 31 41 62 71 82 83
34 46 44 39 33 34 35 43 57 61 59 62 68 66 69 64 62 72 80 77 62 47 35 34 25 18 16 15 15 13 14 15 20 14 20 27 35 44 39 34 66 81 90 93 98
39 52 57 46 41 34 31 35 38 40 43 43 46 47 39 39 53 56 57 55 40 28 20 18 17 17 18 17 15 13 14 20 15 20 26 35 42 41 38 58 79 82 92 96 86
23 25 31 44 53 43 41 36 34 43 49 49 50 45 42 42 43 41 37 36 26 16 15 14 14 18 17 16 13 17 20 15 20 25 32 48 46 39 47 75 85 92 90 81 74
16 23 19 22 22 21 30 34 34 34 32 44 38 42 52 42 32 26 32 30 15 14 12 15 16 16 14 14 15 20 14 19 25 28 45 56 43 36 67 77 76 78 71 70 56
10 10 12 14 15 17 20 24 24 24 28 24 22 35 19 18 19 19 15 13 13 12 12 15 16 12 12 11 18 15 17 22 28 43 56 49 39 58 78 68 73 74 76 66 55
10 12 12 11 11 10 12 12 18 18 17 16 16 13 13 14 14 12 12 12 12 11 13 14 14 11 10 10 14 16 20 22 37 51 48 49 57 65 66 68 74 80 65 63 43
12 13 13 14 15 14 13 12 13 12 12 11 11 9 10 12 11 10 10 10 12 11 13 12 11 10 9 11 15 19 19 30 42 38 41 53 58 57 66 70 84 75 55 45 25
15 15 12 16 18 16 17 16 16 13 12 10 9 8 10 11 10 10 11 10 11 12 12 11 10 10 11 15 19 15 21 35 27 31 43 55 50 70 75 81 88 68 49 46 39
14 14 13 14 16 16 16 16 18 16 14 12 12 11 12 11 11 11 10 11 11 12 11 9 9 10 14 18 15 20 30 23 22 35 44 55 71 74 74 91 80 50 93 99 52
13 14 13 15 16 18 16 18 17 16 15 13 11 12 11 11 11 11 12 11 12 12 10 9 10 15 16 15 20 27 20 18 24 40 57 73 73 73 77 84 57 40 100 82 74
12 13 14 16 19 19 17 17 18 14 13 11 11 12 11 11 13 14 11 12 12 12 10 10 13 14 14 16 23 21 25 33 50 54 68 81 66 68 75 71 47 56 100 91 64
12 14 15 16 17 18 18 18 18 14 13 12 12 11 11 12 16 13 12 12 14 10 10 11 13 13 17 24 21 28 36 50 62 71 80 73 67 66 70 59 37 100 100 100 77
13 15 15 18 18 17 19 19 16 14 13 12 12 12 13 15 14 12 12 13 12 10 11 13 14 18 24 27 28 44 44 58 74 78 79 69 62 68 62 52 36 100 100 100 79
Wind_Speed
54 59 60 57 57 60 57 52 51 47 46 47 49 51 49 50 50 52 52 51 51 52 53 54 59 57 54 55 55 56 57 58 57 59 61 62 63 66 63 61 65 66 69 72 73
53 55 57 61 60 59 54 51 50 50 51 50 52 53 56 57 57 58 58 60 60 61 61 61 62 63 62 63 64 63 64 63 64 68 68 68 66 64 64 64 65 67 73 77 81
49 51 54 58 59 58 58 57 56 56 56 57 58 60 62 64 66 65 67 66 67 68 67 67 67 67 69 70 71 70 73 72 73 74 73 71 70 66 64 68 73 76 80 85 88
59 60 59 60 60 61 60 60 62 62 62 63 64 66 68 70 72 71 71 72 72 73 74 75 75 75 77 78 79 79 80 78 79 79 77 74 74 73 74 78 80 84 89 92 91
68 67 67 67 66 66 67 67 68 69 68 69 71 72 73 75 76 75 76 76 77 78 80 80 81 82 83 83 83 83 84 81 79 77 76 73 74 76 82 85 88 93 92 88 88
74 75 75 74 75 73 74 75 74 75 75 76 77 77 78 79 81 80 80 80 81 83 87 88 87 86 87 84 79 76 77 79 79 77 76 80 79 81 87 91 94 93 89 82 77
81 81 81 80 78 79 80 79 79 81 82 83 84 84 84 85 84 84 84 84 85 86 91 91 89 89 85 86 85 81 76 81 84 82 79 81 83 87 91 96 93 85 79 69 66
91 90 88 87 85 85 86 87 85 85 83 83 85 86 88 90 91 89 90 89 90 90 87 87 85 86 85 84 85 87 86 89 90 85 84 82 83 90 89 82 74 69 62 62 64
97 96 96 94 93 91 92 92 90 90 89 88 88 91 90 93 96 96 96 92 95 97 92 87 86 87 88 88 90 90 91 94 91 87 84 84 85 83 78 67 60 58 59 57 52
103 100 100 100 100 100 98 98 96 95 94 93 92 93 94 96 97 99 99 98 98 99 97 93 93 92 94 96 97 97 93 90 88 83 82 79 77 74 62 56 53 54 51 48 46
106 105 106 104 105 106 106 102 100 99 100 99 97 96 98 99 99 101 101 102 102 100 92 93 93 97 99 103 104 96 86 86 81 75 70 70 71 58 51 52 51 47 43 41 42
105 107 108 108 109 107 107 109 108 105 103 102 102 102 101 102 104 104 102 103 105 98 96 97 100 102 105 103 96 87 83 80 71 67 62 59 56 48 47 45 43 41 37 36 37
115 111 110 109 109 109 112 111 111 111 108 107 107 108 107 106 105 105 102 103 102 96 99 99 105 108 100 88 81 78 73 65 62 60 50 46 45 44 40 38 38 33 31 31 31
115 119 113 112 110 110 112 111 111 112 109 109 107 107 107 106 105 107 109 105 103 102 100 102 107 92 81 73 68 69 59 56 52 47 41 40 40 37 34 33 31 29 27 28 31
118 120 119 119 119 116 116 115 115 114 113 110 109 108 108 106 107 109 107 107 105 102 99 101 87 68 67 61 60 56 51 48 43 39 35 38 34 32 32 28 24 24 27 30 33
121 118 120 120 117 118 120 119 121 120 116 114 111 110 107 105 109 111 111 104 101 96 80 69 62 59 55 55 52 48 45 39 36 32 34 33 31 29 26 22 23 26 30 33 35
107 112 114 117 118 117 119 120 118 118 112 118 114 109 107 109 112 109 100 96 85 75 62 57 51 50 53 50 46 40 37 32 29 31 32 30 28 25 21 21 24 27 31 34 37
101 106 105 103 105 103 104 109 111 109 110 108 107 103 103 102 97 96 87 83 62 55 48 48 47 48 47 44 38 35 31 28 28 30 28 27 25 23 19 21 24 27 31 34 40
88 94 94 97 101 98 98 101 94 97 97 99 95 98 89 85 75 76 67 63 51 44 41 42 42 44 41 38 33 32 27 26 27 27 25 25 24 21 22 23 23 26 31 37 38
76 78 76 82 85 89 91 90 91 92 92 90 87 83 77 73 70 64 55 51 44 41 38 39 40 39 36 32 31 25 25 26 26 25 23 24 23 23 21 20 22 27 31 34 36
73 71 68 68 69 72 72 73 77 78 81 84 82 78 73 75 66 59 52 44 41 39 35 35 36 32 30 29 26 22 25 25 24 22 21 22 22 19 16 18 23 28 28 30 31
68 69 65 61 59 59 59 61 63 66 69 71 72 68 59 59 55 48 46 39 36 36 34 33 34 31 27 27 23 23 25 24 22 21 20 21 19 14 16 18 22 24 29 21 20
64 61 60 53 54 53 52 53 54 58 59 61 59 54 49 48 43 38 36 33 33 33 29 27 27 26 26 23 22 23 22 21 21 21 20 17 16 13 14 15 17 17 5 8 4
60 57 52 50 49 50 48 47 49 52 51 49 46 43 42 38 34 31 29 30 32 29 26 24 26 24 24 21 21 22 22 21 20 17 16 16 14 13 10 12 11 5 25 14 8
56 53 49 45 47 46 45 44 43 46 45 40 37 37 34 30 28 27 28 30 29 26 26 24 24 23 21 22 22 22 20 18 17 16 16 15 13 10 7 5 6 7 32 23 5
52 49 44 43 43 45 42 42 42 40 38 33 33 32 29 26 27 28 27 27 25 26 25 24 23 21 22 23 22 20 19 19 17 15 14 12 9 6 3 2 2 28 40 28 15
48 43 44 42 40 39 42 41 37 35 32 30 29 28 27 26 27 27 25 24 25 25 24 24 22 23 24 23 21 21 19 17 15 14 11 9 6 3 4 5 6 35 41 33 20
Wind_Direction
258 254 251 257 265 264 273 273 275 275 277 279 281 283 283 284 286 287 289 291 291 293 294 294 296 295 293 289 285 282 284 283 281 281 281 284 284 279 275 273 274 271 272 272 271
263 260 258 259 265 270 271 273 273 274 277 279 280 282 283 285 286 287 288 290 292 293 293 292 294 294 293 291 291 288 288 286 284 285 282 283 283 279 277 272 270 271 272 272 271
264 265 266 263 266 268 271 272 272 272 274 276 279 282 284 284 285 286 289 291 293 293 292 291 292 293 293 294 292 289 288 287 288 287 283 285 284 275 273 273 272 272 272 271 270
268 269 268 265 267 267 269 269 271 274 274 276 277 278 281 284 286 289 290 291 290 289 291 292 293 293 293 294 294 293 292 292 291 288 286 283 282 276 274 272 272 273 275 274 274
268 268 268 268 268 268 269 270 271 272 273 275 277 278 280 281 282 284 284 285 287 289 291 291 292 293 293 293 295 293 292 292 293 287 286 282 276 274 272 273 273 274 278 280 278
265 265 267 268 270 271 272 271 270 271 272 273 275 276 277 277 279 280 283 285 287 288 289 291 291 292 292 292 294 293 292 292 291 289 286 281 278 274 273 272 276 281 283 280 274
266 265 265 265 267 266 268 268 269 271 272 273 274 275 277 278 278 280 282 285 286 291 291 290 289 289 291 290 291 292 291 287 289 290 286 282 280 277 276 278 279 282 281 275 272
267 267 266 265 264 266 267 269 270 270 271 273 274 276 277 277 278 278 280 282 284 289 293 291 290 291 291 289 289 290 288 289 290 288 287 281 278 278 282 284 283 281 276 276 272
263 265 265 264 265 266 267 268 270 270 270 271 272 274 276 277 278 279 281 282 287 289 292 290 290 292 292 291 290 291 289 288 289 289 285 284 279 281 286 286 282 279 277 273 269
261 262 262 264 265 265 265 266 268 269 269 270 271 273 274 275 277 280 281 283 286 290 293 290 291 292 296 297 297 295 291 288 287 287 290 287 285 288 286 281 282 279 274 271 263
262 262 263 263 265 265 266 266 265 266 268 269 270 272 274 274 275 278 281 285 285 288 291 291 293 296 298 296 297 293 289 287 289 291 287 287 288 286 279 279 281 276 271 267 266
265 263 263 263 264 265 266 265 264 264 267 269 271 272 273 275 276 277 280 283 286 289 292 296 297 296 296 294 292 289 288 288 289 286 287 289 287 280 279 282 279 274 274 272 270
264 264 263 263 264 264 264 265 266 266 266 269 270 271 273 276 276 278 280 282 285 290 294 296 297 295 294 290 288 288 287 288 285 286 286 285 280 280 282 280 274 273 272 273 274
265 264 261 264 265 264 266 267 267 267 267 268 270 272 274 276 278 280 281 284 288 292 293 295 295 293 290 286 285 284 288 284 283 285 285 280 277 281 278 274 270 275 279 284 284
266 266 264 264 265 265 266 266 266 268 271 271 271 273 274 276 279 280 282 283 287 291 292 291 291 288 287 285 281 284 283 281 283 283 280 274 275 273 271 267 273 279 282 282 281
265 265 267 267 267 265 266 267 269 268 270 271 272 273 276 278 279 281 284 286 289 293 290 287 283 285 282 280 281 284 280 282 281 280 273 270 271 270 265 271 277 281 283 282 284
268 267 267 267 266 268 269 270 271 272 275 274 274 275 277 278 280 282 283 287 292 290 286 282 282 282 277 278 283 282 278 278 278 273 269 269 269 268 268 278 279 281 282 285 285
266 266 268 269 269 269 271 270 273 273 275 277 275 277 277 281 281 282 283 288 287 285 281 278 277 275 275 275 280 274 276 277 271 267 266 265 265 267 273 275 281 289 293 297 297
270 267 268 269 269 269 270 271 272 273 273 276 277 277 280 281 282 281 285 285 286 283 279 273 267 268 270 272 270 271 274 269 265 263 260 262 265 266 271 280 292 299 303 301 304
277 274 271 270 269 270 270 269 271 272 273 275 275 277 278 280 281 285 282 281 282 282 276 267 266 268 267 267 265 267 263 261 260 257 257 258 262 267 276 286 300 305 307 305 304
274 274 274 272 271 270 270 271 272 272 272 272 274 277 277 276 278 279 279 278 278 276 268 263 264 266 267 263 262 259 257 257 255 251 253 256 261 270 287 304 312 312 310 308 303
269 271 269 271 271 270 270 273 273 273 270 271 273 276 277 274 275 273 275 270 271 266 261 262 259 261 257 255 253 253 251 250 251 252 254 255 267 285 297 317 316 319 317 313 308
265 266 266 267 269 271 271 269 270 270 269 271 273 274 272 269 269 267 262 260 258 255 260 260 255 251 247 244 244 247 245 244 248 249 252 263 271 284 302 319 320 318 231 157 158
259 262 260 263 266 268 265 266 268 268 267 269 271 267 265 263 261 254 250 250 247 248 248 247 244 239 238 239 238 238 239 243 247 250 253 257 267 283 313 318 309 360 154 169 135
254 256 257 261 265 266 261 261 263 266 266 268 266 259 257 254 249 243 243 241 242 239 237 238 234 230 232 233 233 231 233 239 240 242 245 254 269 288 323 316 296 165 171 150 133
248 250 252 254 258 261 260 258 259 261 265 261 256 250 246 243 238 238 233 234 228 230 226 225 224 225 226 226 224 225 225 226 229 232 238 250 264 291 292 262 234 172 173 168 180
240 239 241 246 254 255 253 255 256 259 260 253 247 239 235 231 231 226 223 221 217 216 212 210 214 218 219 218 217 218 218 217 216 224 233 249 264 272 228 185 193 176 182 176 183